Weather History for Wolf Point, MT

Change the Weather History Date:

Wednesday, February 22, 2012

  Actual Average Record
Temperature  
Mean Temperature 32 °F -  
Max Temperature 45 °F 33 °F 66 °F (2002)
Min Temperature 18 °F 8 °F -14 °F (2011)
Degree Days  
Heating Degree Days 33    
Cooling Degree Days 0    
Moisture  
Dew Point 29 °F    
Average Humidity 86    
Maximum Humidity 100    
Minimum Humidity 49    
Precipitation  
Precipitation 0.06 in 0.01 in 0.06 in (2012)
Month to date precipitation 0.09 0.14  
Year to date precipitation 0.19 0.45  
Sea Level Pressure  
Sea Level Pressure 29.40 in    
Wind  
Wind Speed 6 mph (West)    
Max Wind Speed 21 mph    
Max Gust Speed 33 mph    
Visibility 10 miles    
Events Rain , Snow    
T = Trace of Precipitation, MM = Missing Value Source: NWS Daily Summary

Daily Weather History Graph

Daily Weather History Graph

Search for Another Location

Airport:

Trip Planner

Search our weather history database for the weather conditions in past years. The results will help you decide how hot, cold, wet, or windy it might be!

Date:

Astronomy

Feb. 22, 2012 Rise Set
Actual Time 6:57 AM MST 5:35 PM MST
Civil Twilight 6:25 AM MST 6:06 PM MST
Nautical Twilight 5:49 AM MST 6:42 PM MST
Astronomical Twilight 5:13 AM MST 7:18 PM MST
Moon 6:49 AM MST 6:54 PM MST
Length of Visible Light 11h 40m
Length of Day
10h 37m
New Moon, 1% of the Moon is Illuminated
Feb 22
New Moon
Feb 29
First Quarter
Mar 8
Full
Mar 14
Last Quarter
Mar 22
New

Hourly Weather History & Observations

Time (MST) Temp. Windchill Dew Point Humidity Pressure Visibility Wind Dir Wind Speed Gust Speed Precip Events Conditions
12:53 AM 28.0 °F 20.8 °F 24.1 °F 85% 29.54 in 10.0 mi WSW 6.9 mph - N/A   Mostly Cloudy
1:53 AM 25.0 °F 15.5 °F 21.9 °F 88% 29.58 in 10.0 mi WSW 9.2 mph - N/A   Scattered Clouds
2:53 AM 23.0 °F 15.8 °F 21.0 °F 92% 29.57 in 10.0 mi WSW 5.8 mph - N/A   Scattered Clouds
3:53 AM 24.1 °F 17.0 °F 21.0 °F 88% 29.55 in 10.0 mi SW 5.8 mph - N/A   Scattered Clouds
4:53 AM 19.4 °F - 19.4 °F 100% 29.50 in 10.0 mi Calm Calm - N/A   Clear
5:53 AM 21.0 °F 16.2 °F 19.0 °F 92% 29.57 in 10.0 mi SSW 3.5 mph - N/A   Mostly Cloudy
6:53 AM 19.0 °F - 17.1 °F 92% 29.57 in 10.0 mi Calm Calm - N/A   Clear
7:53 AM 24.1 °F - 21.9 °F 91% 29.54 in 10.0 mi Calm Calm - N/A   Partly Cloudy
8:53 AM 28.0 °F 24.2 °F 24.1 °F 85% 29.51 in 10.0 mi West 3.5 mph - N/A   Partly Cloudy
9:53 AM 34.0 °F - 26.1 °F 73% 29.46 in 10.0 mi Calm Calm - N/A   Partly Cloudy
10:53 AM 41.0 °F 36.4 °F 28.0 °F 60% 29.40 in 10.0 mi East 6.9 mph - N/A   Mostly Cloudy
11:53 AM 44.1 °F 40.1 °F 26.1 °F 49% 29.35 in 10.0 mi South 6.9 mph - N/A   Overcast
12:53 PM 44.1 °F - 28.0 °F 53% 29.31 in 10.0 mi Calm Calm - N/A   Overcast
1:53 PM 42.1 °F 38.4 °F 32.0 °F 67% 29.29 in 10.0 mi SSW 5.8 mph - N/A   Overcast
2:42 PM 39.2 °F 35.9 °F 35.6 °F 87% 29.22 in 10.0 mi SW 4.6 mph - 0.01 in Rain Light Rain
2:53 PM 39.9 °F 35.8 °F 36.0 °F 86% 29.27 in 10.0 mi South 5.8 mph - 0.01 in Rain Light Rain
3:34 PM 37.4 °F 33.8 °F 35.6 °F 93% 29.23 in 10.0 mi West 4.6 mph - 0.01 in   Overcast
3:53 PM 37.0 °F 33.3 °F 35.1 °F 93% 29.30 in 10.0 mi WNW 4.6 mph - 0.01 in Rain Light Rain
4:01 PM 37.4 °F - 35.6 °F 93% 29.23 in 5.0 mi Calm Calm - 0.01 in Rain Light Rain
4:12 PM 37.4 °F - 35.6 °F 93% 29.23 in 4.0 mi Calm Calm - 0.02 in Rain Light Rain
4:34 PM 35.6 °F 31.7 °F 35.6 °F 100% 29.24 in 10.0 mi WSW 4.6 mph - 0.03 in Rain Light Rain
4:53 PM 36.0 °F 30.3 °F 34.0 °F 93% 29.33 in 10.0 mi WSW 6.9 mph - 0.03 in   Overcast
5:00 PM 35.6 °F 30.7 °F 33.8 °F 93% 29.26 in 10.0 mi WSW 5.8 mph - N/A   Overcast
5:53 PM 34.0 °F 28.8 °F 33.1 °F 96% 29.37 in 10.0 mi WNW 5.8 mph - 0.01 in Rain Light Rain
6:36 PM 35.6 °F 32.8 °F 33.8 °F 93% 29.31 in 10.0 mi West 3.5 mph - 0.00 in   Overcast
6:43 PM 33.8 °F 30.8 °F 33.8 °F 100% 29.31 in 10.0 mi West 3.5 mph - 0.00 in   Overcast
6:53 PM 34.0 °F 29.8 °F 33.1 °F 96% 29.39 in 10.0 mi WSW 4.6 mph - 0.00 in   Mostly Cloudy
7:53 PM 35.1 °F 25.5 °F 30.9 °F 85% 29.43 in 10.0 mi NW 15.0 mph - N/A   Scattered Clouds
8:53 PM 35.1 °F 25.5 °F 30.9 °F 85% 29.45 in 10.0 mi NW 15.0 mph - N/A   Overcast
9:49 PM 35.6 °F 24.5 °F 30.2 °F 81% 29.44 in 6.0 mi NNW 20.7 mph 33.4 mph 0.00 in Snow Light Snow
9:53 PM 35.1 °F 24.5 °F 30.0 °F 82% 29.49 in 7.0 mi NNW 18.4 mph 27.6 mph 0.00 in Snow Light Snow
10:53 PM 33.1 °F 23.9 °F 28.0 °F 82% 29.54 in 10.0 mi WNW 12.7 mph - 0.00 in   Partly Cloudy
11:53 PM 30.9 °F 20.2 °F 25.0 °F 79% 29.57 in 10.0 mi WNW 15.0 mph 24.2 mph N/A   Clear